Location: Banff
(51.1667°N, 115.5667°W)
Time: 13:33:02
(UTC+00:00)

Vanguard 1 Rocket - Pass Details

Date: 26 November 2020
Orbit: 655 x 4222 km, 34.3° (Epoch: 23 January)

Event Time Altitude Azimuth Distance (km) Brightness Sun altitude
Rises 08:21:35 0° 211° (SSW) 8,336 - -58.2°
Reaches altitude 10° 08:28:27 10° 203° (SSW) 7,414 - -57.8°
Maximum altitude 08:48:38 32° 152° (SSE) 5,250 - -56.2°
Exits shadow 08:53:33 29° 132° (SE) 5,099 11.0 -55.7°
Drops below altitude 10° 09:03:49 10° 99° (E) 5,651 11.6 -54.7°
Sets 09:08:01 0° 90° (E) 6,208 12.0 -54.3°
